| time (UTC) | temp F | wind direction | speed knots | gust knots | rain 1hr in | rain 24hr in | rain mn in | humidity % | barometer mb |
| 20260905223041 | 100 | 0 | 0.0 | 0.0 | 0.00 | 0.12 | 0.12 | 56 | 1012.3 |
| 20260905221534 | 101 | 0 | 0.0 | 0.0 | 0.00 | 0.12 | 0.12 | 52 | 1012.3 |
| 20260905220037 | 101 | 0 | 0.0 | 0.0 | 0.00 | 0.12 | 0.12 | 54 | 1012.1 |
| 20260905214539 | 102 | 0 | 0.0 | 0.0 | 0.00 | 0.12 | 0.12 | 53 | 1012.4 |
| 20260905213037 | 102 | 0 | 0.0 | 0.0 | 0.00 | 0.12 | 0.12 | 55 | 1012.4 |
| 20260905211539 | 102 | 0 | 0.0 | 0.0 | 0.00 | 0.12 | 0.12 | 52 | 1012.4 |
| 20260905210047 | 102 | 0 | 0.0 | 0.0 | 0.00 | 0.12 | 0.12 | 51 | 1012.5 |
| 20260905204535 | 102 | 0 | 0.0 | 0.0 | 0.00 | 0.12 | 0.12 | 55 | 1012.5 |
| 20260905203049 | 101 | 0 | 0.0 | 0.0 | 0.00 | 0.12 | 0.12 | 53 | 1012.7 |
| 20260905201535 | 100 | 0 | 0.0 | 0.0 | 0.00 | 0.12 | 0.12 | 54 | 1012.9 |
| 20260905200037 | 99 | 0 | 0.0 | 0.0 | 0.00 | 0.12 | 0.12 | 55 | 1013.1 |
| 20260905194535 | 99 | 0 | 0.0 | 0.0 | 0.00 | 0.12 | 0.12 | 56 | 1013.4 |
| 20260905193036 | 98 | 0 | 0.0 | 0.0 | 0.00 | 0.12 | 0.12 | 55 | 1013.6 |
| 20260905191539 | 97 | 0 | 0.0 | 0.0 | 0.00 | 0.12 | 0.12 | 56 | 1013.7 |
| 20260905190035 | 96 | 0 | 0.0 | 0.0 | 0.00 | 0.12 | 0.12 | 58 | 1013.9 |
| 20260905184545 | 95 | 0 | 0.0 | 0.0 | 0.00 | 0.12 | 0.12 | 58 | 1014.0 |
| 20260905183033 | 93 | 0 | 0.0 | 0.0 | 0.00 | 0.12 | 0.12 | 60 | 1014.3 |
| 20260905181540 | 92 | 0 | 0.0 | 0.0 | 0.00 | 0.12 | 0.12 | 62 | 1014.6 |
| 20260905180038 | 89 | 0 | 0.0 | 0.0 | 0.00 | 0.12 | 0.12 | 63 | 1014.6 |
| 20260905174537 | 87 | 0 | 0.0 | 0.0 | 0.00 | 0.12 | 0.12 | 63 | 1014.8 |
| 20260905173037 | 85 | 0 | 0.0 | 0.0 | 0.00 | 0.12 | 0.12 | 60 | 1014.7 |
| 20260905171550 | 83 | 0 | 0.0 | 0.0 | 0.00 | 0.12 | 0.12 | 52 | 1014.9 |
| 20260905170033 | 82 | 0 | 0.0 | 0.0 | 0.00 | 0.12 | 0.12 | 44 | 1015.2 |
| 20260905164544 | 81 | 0 | 0.0 | 0.0 | 0.00 | 0.12 | 0.12 | 11 | 1015.4 |
| 20260905163041 | 80 | 0 | 0.0 | 0.0 | 0.00 | 0.12 | 0.12 | 100 | 1015.5 |
| 20260905161537 | 79 | 0 | 0.0 | 0.0 | 0.00 | 0.12 | 0.12 | 100 | 1015.3 |
| 20260905160038 | 77 | 0 | 0.0 | 0.0 | 0.00 | 0.12 | 0.12 | 100 | 1015.4 |
| 20260905154540 | 76 | 0 | 0.0 | 0.0 | 0.00 | 0.12 | 0.12 | 100 | 1015.4 |
| 20260905153033 | 76 | 0 | 0.0 | 0.0 | 0.00 | 0.12 | 0.12 | 100 | 1015.6 |
| 20260905151540 | 75 | 0 | 0.0 | 0.0 | 0.00 | 0.12 | 0.12 | 100 | 1015.9 |
| 20260905150045 | 74 | 0 | 0.0 | 0.0 | 0.00 | 0.12 | 0.12 | 100 | 1015.8 |
| 20260905144538 | 74 | 0 | 0.0 | 0.0 | 0.00 | 0.12 | 0.12 | 100 | 1016.0 |
| 20260905143038 | 74 | 0 | 0.0 | 0.0 | 0.00 | 0.12 | 0.12 | 100 | 1016.1 |
| 20260905141536 | 73 | 0 | 0.0 | 0.0 | 0.00 | 0.12 | 0.12 | 100 | 1016.3 |
| 20260905140037 | 73 | 0 | 0.0 | 0.0 | 0.00 | 0.12 | 0.12 | 100 | 1016.5 |
| 20260905134536 | 73 | 0 | 0.0 | 0.0 | 0.00 | 0.12 | 0.12 | 100 | 1016.4 |
| 20260905133033 | 73 | 0 | 0.0 | 0.0 | 0.01 | 0.12 | 0.12 | 100 | 1016.4 |
| 20260905131538 | 73 | 0 | 0.0 | 0.0 | 0.01 | 0.12 | 0.12 | 100 | 1016.2 |
| 20260905130034 | 73 | 0 | 0.0 | 0.0 | 0.12 | 0.12 | 0.12 | 100 | 1016.2 |
| 20260905124537 | 74 | 0 | 0.0 | 0.0 | 0.12 | 0.12 | 0.12 | 100 | 1016.3 |
| 20260905123039 | 75 | 0 | 0.0 | 0.0 | 0.11 | 0.11 | 0.11 | 100 | 1015.8 |
| 20260905121539 | 75 | 0 | 0.0 | 0.0 | 0.11 | 0.11 | 0.11 | 100 | 1015.9 |
| 20260905120041 | 75 | 0 | 0.0 | 0.0 | 0.00 | 0.00 | 0.00 | 100 | 1016.3 |
| 20260905114535 | 76 | 0 | 0.0 | 0.0 | 0.00 | 0.00 | 0.00 | 100 | 1015.5 |
| 20260905113037 | 76 | 0 | 0.0 | 0.0 | 0.00 | 0.00 | 0.00 | 100 | 1015.5 |
| 20260905111545 | 76 | 0 | 0.0 | 0.0 | 0.00 | 0.00 | 0.00 | 100 | 1015.2 |
| 20260905110039 | 77 | 0 | 0.0 | 0.0 | 0.00 | 0.00 | 0.00 | 100 | 1014.8 |
| 20260905104551 | 77 | 0 | 0.0 | 0.0 | 0.00 | 0.00 | 0.00 | 100 | 1014.8 |
| 20260905103039 | 77 | 0 | 0.0 | 0.0 | 0.00 | 0.00 | 0.00 | 100 | 1014.3 |
| 20260905101535 | 77 | 0 | 0.0 | 0.0 | 0.00 | 0.00 | 0.00 | 100 | 1014.2 |
| 20260905100036 | 78 | 0 | 0.0 | 0.0 | 0.00 | 0.00 | 0.00 | 100 | 1014.4 |
| 20260905094619 | 78 | 0 | 0.0 | 0.0 | 0.00 | 0.00 | 0.00 | 100 | 1014.4 |
| 20260905093037 | 78 | 0 | 0.0 | 0.0 | 0.00 | 0.00 | 0.00 | 100 | 1014.2 |
| 20260905091534 | 78 | 0 | 0.0 | 0.0 | 0.00 | 0.00 | 0.00 | 100 | 1013.8 |
| 20260905090037 | 78 | 0 | 0.0 | 0.0 | 0.00 | 0.00 | 0.00 | 100 | 1013.9 |
| 20260905084553 | 78 | 0 | 0.0 | 0.0 | 0.00 | 0.00 | 0.00 | 100 | 1014.0 |
| 20260905083035 | 79 | 0 | 0.0 | 0.0 | 0.00 | 0.00 | 0.00 | 100 | 1013.8 |
| 20260905081541 | 79 | 0 | 0.0 | 0.0 | 0.00 | 0.00 | 0.00 | 100 | 1013.7 |
| 20260905080035 | 79 | 0 | 0.0 | 0.0 | 0.00 | 0.00 | 0.00 | 100 | 1013.6 |
| 20260905074534 | 79 | 0 | 0.0 | 0.0 | 0.00 | 0.00 | 0.00 | 100 | 1013.8 |
| 20260905073038 | 80 | 0 | 0.0 | 0.0 | 0.00 | 0.00 | 0.00 | 100 | 1013.9 |
| 20260905071539 | 80 | 0 | 0.0 | 0.0 | 0.00 | 0.00 | 0.00 | 100 | 1014.0 |
| 20260905070037 | 80 | 0 | 0.0 | 0.0 | 0.00 | 0.00 | 0.00 | 100 | 1014.1 |
| 20260905064536 | 80 | 0 | 0.0 | 0.0 | 0.00 | 0.00 | 0.00 | 100 | 1014.2 |
| 20260905063036 | 80 | 0 | 0.0 | 0.0 | 0.00 | 0.00 | 0.00 | 100 | 1014.4 |
| 20260905061554 | 80 | 0 | 0.0 | 0.0 | 0.00 | 0.00 | 0.00 | 100 | 1014.5 |
| 20260905060057 | 80 | 0 | 0.0 | 0.0 | 0.00 | 0.00 | 0.00 | 100 | 1014.9 |
| 20260905054545 | 81 | 0 | 0.0 | 0.0 | 0.00 | 0.00 | 0.00 | 100 | 1014.8 |
| 20260905053037 | 81 | 0 | 0.0 | 0.0 | 0.00 | 0.00 | 0.00 | 100 | 1014.9 |
| 20260905051539 | 81 | 0 | 0.0 | 0.0 | 0.00 | 0.00 | 0.00 | 100 | 1015.2 |
| 20260905050035 | 82 | 0 | 0.0 | 0.0 | 0.00 | 0.00 | 0.00 | 100 | 1015.3 |
| 20260905044535 | 82 | 0 | 0.0 | 0.0 | 0.00 | 0.00 | 0.00 | 100 | 1015.1 |
| 20260905043035 | 82 | 0 | 0.0 | 0.0 | 0.00 | 0.00 | 0.00 | 100 | 1015.2 |
| 20260905041539 | 82 | 0 | 0.0 | 0.0 | 0.00 | 0.00 | 0.00 | 1 | 1015.2 |
| 20260905040035 | 83 | 0 | 0.0 | 0.0 | 0.00 | 0.00 | 0.00 | 6 | 1015.2 |
| 20260905034538 | 83 | 0 | 0.0 | 0.0 | 0.00 | 0.00 | 0.00 | 15 | 1015.2 |
| 20260905033036 | 84 | 0 | 0.0 | 0.0 | 0.00 | 0.00 | 0.00 | 20 | 1015.3 |
| 20260905031545 | 84 | 0 | 0.0 | 0.0 | 0.00 | 0.00 | 0.00 | 29 | 1015.3 |
| 20260905030035 | 85 | 0 | 0.0 | 0.0 | 0.00 | 0.00 | 0.00 | 37 | 1015.5 |
| 20260905024555 | 85 | 0 | 0.0 | 0.0 | 0.00 | 0.00 | 0.00 | 43 | 1015.4 |
| 20260905023035 | 86 | 0 | 0.0 | 0.0 | 0.00 | 0.00 | 0.00 | 45 | 1015.4 |
| 20260905021533 | 87 | 0 | 0.0 | 0.0 | 0.00 | 0.00 | 0.00 | 48 | 1015.4 |
| 20260905020036 | 87 | 0 | 0.0 | 0.0 | 0.00 | 0.00 | 0.00 | 54 | 1015.3 |
| 20260905014534 | 88 | 0 | 0.0 | 0.0 | 0.00 | 0.00 | 0.00 | 56 | 1015.3 |
| 20260905013054 | 89 | 0 | 0.0 | 0.0 | 0.00 | 0.00 | 0.00 | 57 | 1014.9 |
| 20260905011536 | 91 | 0 | 0.0 | 0.0 | 0.00 | 0.00 | 0.00 | 59 | 1014.7 |
| 20260905010035 | 92 | 0 | 0.0 | 0.0 | 0.00 | 0.00 | 0.00 | 61 | 1014.6 |
| 20260905004537 | 94 | 0 | 0.0 | 0.0 | 0.00 | 0.00 | 0.00 | 62 | 1014.5 |
| 20260905003039 | 95 | 0 | 0.0 | 0.0 | 0.00 | 0.00 | 0.00 | 62 | 1014.5 |
| 20260905001537 | 97 | 0 | 0.0 | 0.0 | 0.00 | 0.00 | 0.00 | 61 | 1014.3 |
| 20260905000037 | 99 | 0 | 0.0 | 0.0 | 0.00 | 0.00 | 0.00 | 61 | 1014.1 |
| 20260904234540 | 101 | 0 | 0.0 | 0.0 | 0.00 | 0.00 | 0.00 | 60 | 1014.3 |
| 20260904233038 | 102 | 0 | 0.0 | 0.0 | 0.00 | 0.00 | 0.00 | 54 | 1014.5 |
| 20260904231538 | 103 | 0 | 0.0 | 0.0 | 0.00 | 0.00 | 0.00 | 54 | 1014.6 |
| 20260904230050 | 104 | 0 | 0.0 | 0.0 | 0.00 | 0.00 | 0.00 | 56 | 1014.7 |
| 20260904224534 | 104 | 0 | 0.0 | 0.0 | 0.00 | 0.00 | 0.00 | 48 | 1014.8 |